Location: Bottenau
(48.5138°N, 8.0462°E)
Time: 20:25:54
(UTC+00:00)

Cosmos 389 Rocket - Pass Details

Date: 18 April 2021
Orbit: 441 x 472 km, 81.1° (Epoch: 18 May)

Event Time Altitude Azimuth Distance (km) Brightness Sun altitude
Exits shadow 20:00:13 22° 169° (S) 1,051 3.8 -15.0°
Maximum altitude 20:02:15 56° 98° (E) 560 2.5 -15.2°
Drops below altitude 10° 20:05:46 10° 20° (NNE) 1,635 5.5 -15.7°
Sets 20:07:53 0° 16° (NNE) 2,521 6.5 -16.0°
